Weather History for Detroit, MI

Change the Weather History Date:

Saturday, March 8, 2014

  Actual Average Record
Temperature  
Mean Temperature 32 °F -  
Max Temperature 39 °F 40 °F 75 °F (1987)
Min Temperature 26 °F 24 °F 5 °F (1986)
Degree Days  
Heating Degree Days 32    
Moisture  
Dew Point 23 °F    
Average Humidity 68    
Maximum Humidity 82    
Minimum Humidity 56    
Precipitation  
Precipitation 0.07 in - - ()
Sea Level Pressure  
Sea Level Pressure 30.06 in    
Wind  
Wind Speed 7 mph (North)    
Max Wind Speed 14 mph    
Max Gust Speed 20 mph    
Visibility 8 miles    
Events Rain    
Averages and records for this station are not official NWS values.
T = Trace of Precipitation, MM = Missing Value Source: NWS Daily Summary

Daily Weather History Graph

Daily Weather History Graph

Search for Another Location

Airport:

Trip Planner

Search our weather history database for the weather conditions in past years. The results will help you decide how hot, cold, wet, or windy it might be!

Date:

Astronomy

Mar. 08, 2014 Rise Set
Actual Time 6:55 AM EST 6:30 PM EST
Civil Twilight 6:27 AM EST 6:58 PM EST
Nautical Twilight 5:55 AM EST 7:30 PM EST
Astronomical Twilight 5:22 AM EST 8:03 PM EST
Moon 11:28 AM EST (3/8) 1:34 AM EST (3/8)
Length of Visible Light 12h 30m
Length of Day
11h 34m
First Quarter, 51% of the Moon is Illuminated
Mar 8
First Quarter
Mar 16
Full
Mar 23
Last Quarter
Mar 30
New
Apr 7
First Quarter

Hourly Weather History & Observations

Time (EST) Temp. Windchill Dew Point Humidity Pressure Visibility Wind Dir Wind Speed Gust Speed Precip Events Conditions
12:53 AM 39.0 °F 35.7 °F 26.1 °F 60% 29.93 in 9.0 mi West 4.6 mph - N/A   Mostly Cloudy
1:53 AM 39.0 °F 35.7 °F 26.1 °F 60% 29.93 in 9.0 mi West 4.6 mph - N/A   Overcast
2:53 AM 37.9 °F 33.5 °F 28.9 °F 70% 29.93 in 5.0 mi West 5.8 mph - 0.03 in Rain Light Rain
3:42 AM 37.4 °F 32.8 °F 30.2 °F 75% 29.92 in 5.0 mi West 5.8 mph - 0.03 in Rain Light Rain
3:53 AM 37.0 °F 32.4 °F 30.9 °F 79% 29.94 in 5.0 mi West 5.8 mph - 0.03 in Rain Light Rain
4:02 AM 37.4 °F 33.8 °F 30.2 °F 75% 29.93 in 5.0 mi West 4.6 mph - 0.00 in Rain Light Rain
4:23 AM 37.4 °F 33.8 °F 30.2 °F 75% 29.93 in 5.0 mi West 4.6 mph - 0.00 in Rain Light Rain
4:35 AM 37.4 °F 33.8 °F 30.2 °F 75% 29.93 in 5.0 mi WNW 4.6 mph - 0.00 in Rain Light Rain
4:53 AM 37.0 °F 34.5 °F 32.0 °F 82% 29.94 in 5.0 mi NW 3.5 mph - 0.00 in   Overcast
5:53 AM 36.0 °F 28.5 °F 30.0 °F 79% 29.98 in 4.0 mi NNE 10.4 mph 17.3 mph 0.01 in   Haze
6:07 AM 35.6 °F 27.5 °F 28.4 °F 75% 29.97 in 6.0 mi NNE 11.5 mph - N/A   Haze
6:31 AM 35.6 °F 27.5 °F 28.4 °F 75% 29.98 in 5.0 mi NNE 11.5 mph 18.4 mph N/A   Haze
6:45 AM 33.8 °F 24.3 °F 28.4 °F 81% 29.99 in 5.0 mi NNE 13.8 mph - N/A   Haze
6:53 AM 34.0 °F 25.5 °F 27.0 °F 75% 30.01 in 6.0 mi NNE 11.5 mph - N/A   Haze
7:35 AM 33.8 °F 24.8 °F 26.6 °F 75% 30.02 in 6.0 mi NNE 12.7 mph 16.1 mph N/A   Haze
7:53 AM 33.1 °F 24.4 °F 26.1 °F 75% 30.04 in 6.0 mi NNE 11.5 mph - N/A   Haze
8:53 AM 32.0 °F 22.5 °F 25.0 °F 75% 30.07 in 7.0 mi NNE 12.7 mph - N/A   Overcast
9:12 AM 32.0 °F 22.1 °F 24.8 °F 75% 30.06 in 8.0 mi North 13.8 mph - N/A   Overcast
9:53 AM 32.0 °F 23.6 °F 23.0 °F 69% 30.09 in 9.0 mi North 10.4 mph 19.6 mph N/A   Overcast
10:53 AM 32.0 °F 23.0 °F 21.9 °F 66% 30.11 in 10.0 mi NNE 11.5 mph - N/A   Overcast
11:04 AM 32.0 °F 23.6 °F 21.2 °F 64% 30.10 in 10.0 mi North 10.4 mph - N/A   Overcast
11:53 AM 32.0 °F 23.6 °F 21.9 °F 66% 30.12 in 10.0 mi North 10.4 mph - N/A   Overcast
12:13 PM 32.0 °F 23.6 °F 21.2 °F 64% 30.10 in 10.0 mi North 10.4 mph - N/A   Overcast
12:53 PM 32.0 °F 24.2 °F 21.0 °F 64% 30.11 in 10.0 mi North 9.2 mph - N/A   Overcast
1:21 PM 33.8 °F 25.8 °F 21.2 °F 60% 30.08 in 10.0 mi NNW 10.4 mph - N/A   Overcast
1:30 PM 33.8 °F 25.8 °F 21.2 °F 60% 30.09 in 10.0 mi NNE 10.4 mph - N/A   Overcast
1:53 PM 32.0 °F 22.5 °F 19.9 °F 61% 30.10 in 10.0 mi North 12.7 mph - N/A   Overcast
2:53 PM 33.1 °F 26.1 °F 19.9 °F 59% 30.10 in 10.0 mi North 8.1 mph - N/A   Mostly Cloudy
3:06 PM 33.8 °F 27.7 °F 19.4 °F 56% 30.08 in 10.0 mi NNW 6.9 mph - N/A   Scattered Clouds
3:53 PM 34.0 °F 28.0 °F 21.0 °F 59% 30.10 in 10.0 mi North 6.9 mph - N/A   Mostly Cloudy
4:53 PM 32.0 °F 26.4 °F 19.9 °F 61% 30.12 in 10.0 mi NNE 5.8 mph - N/A   Overcast
5:53 PM 30.9 °F 24.3 °F 19.0 °F 61% 30.13 in 10.0 mi NNE 6.9 mph - N/A   Overcast
6:53 PM 30.0 °F 21.7 °F 18.0 °F 61% 30.14 in 10.0 mi NNE 9.2 mph - N/A   Overcast
7:53 PM 28.0 °F 21.7 °F 18.0 °F 66% 30.17 in 10.0 mi NNE 5.8 mph - N/A   Overcast
8:49 PM 28.4 °F 22.2 °F 17.6 °F 64% 30.15 in 10.0 mi NNE 5.8 mph - N/A   Overcast
8:53 PM 28.0 °F 21.7 °F 18.0 °F 66% 30.18 in 10.0 mi NNE 5.8 mph - N/A   Overcast
9:13 PM 26.6 °F - 17.6 °F 69% 30.16 in 10.0 mi Calm Calm - N/A   Mostly Cloudy
9:53 PM 27.0 °F 23.0 °F 17.1 °F 66% 30.18 in 10.0 mi West 3.5 mph - N/A   Clear
10:53 PM 26.1 °F 21.9 °F 16.0 °F 66% 30.18 in 10.0 mi WSW 3.5 mph - N/A   Clear
11:53 PM 26.1 °F 20.5 °F 16.0 °F 66% 30.18 in 10.0 mi West 4.6 mph - N/A   Clear